Flag for Germany Weather past 2 weeks in Oberursel (Taunus), Hesse, Germany

Now
48 °F

Passing clouds.


Feels Like: 48 °F
Forecast: 49 / 61 °F
Wind: 1 mph from Southeast

Location: Frankfurt / M-Flughafen

Current Time: May 6, 2015 at 4:36:20 AM

Latest Report: May 6, 2015 at 4:00 AM


Visibility: 37 mi

Pressure: 29.91 "Hg

Humidity: 90%

Dew point: 45 °F

Location of Oberursel (Taunus)Location

Historic Weather in Oberursel (Taunus) — Graph

°F

Oberursel (Taunus) temperature yesterday

Maximum temperature yesterday: 76 °F (at 3:00 PM)
Minimum temperature yesterday: 57 °F (at 6:00 AM)
Average temperature yesterday: 67 °F

Past Weeks' High & Low Weather Summary

 TemperatureHumidityPressure
High76 °F (May 5, 3:00 PM)100% (Apr 26, 3:00 AM)30.42 "Hg (Apr 26, 3:00 AM)
Low32 °F (Apr 29, 6:00 AM)20% (Apr 21, 5:00 PM)29.56 "Hg (May 5, 8:00 AM)
Average54 °F70%29.92 "Hg
* Reported Apr 21 3:00 AM — May 6 3:00 AM, Oberursel (Taunus), Weather by CustomWeather, © 2015

Note: Actual official high and low records may vary slightly from our data, if they occured in-between our weather recording intervals... More about our weather records

Advertising

Oberursel (Taunus) weather history for previous 24 hours

 ConditionsComfort  
Time TempWeatherWind HumidityBarometerVisibility
3:00 AM
Wed, May 6
51 °FPassing clouds.1 mph82%29.90 "Hg37 mi
2:00 AM51 °FPassing clouds.1 mph80%29.90 "Hg40 mi
1:00 AM55 °FPassing clouds.1 mph64%29.89 "Hg40 mi
12:00 AM61 °FPassing clouds.6 mph47%29.88 "Hg40 mi
11:00 PM
Tue, May 5
64 °FOvercast.9 mph41%29.87 "Hg40 mi
10:00 PM65 °FPassing clouds.7 mph44%29.84 "Hg40 mi
9:00 PM67 °FPassing clouds.9 mph42%29.80 "Hg40 mi
8:00 PM69 °FPartly sunny.12 mph38%29.77 "Hg40 mi
7:00 PM72 °FPartly sunny.12 mph44%29.73 "Hg31 mi
6:00 PM73 °FPartly sunny.14 mph45%29.70 "Hg31 mi
5:00 PM74 °FPartly sunny.15 mph44%29.69 "Hg31 mi
4:00 PM76 °FPartly sunny.12 mph39%29.67 "Hg28 mi
3:00 PM76 °FPartly sunny.12 mph39%29.64 "Hg28 mi
2:00 PM76 °FPartly sunny.10 mph48%29.63 "Hg28 mi
1:00 PM73 °FPartly sunny.10 mph58%29.62 "Hg25 mi
12:00 PM71 °FOvercast.9 mph68%29.62 "Hg31 mi
10:00 AM64 °FOvercast.2 mph88%29.59 "Hg31 mi
9:00 AM61 °FOvercast.1 mph95%29.58 "Hg31 mi
8:00 AM60 °FOvercast.3 mph97%29.56 "Hg28 mi
7:00 AM58 °FLight rain. Overcast.2 mph98%29.57 "Hg25 mi
6:00 AM57 °FOvercast.1 mph97%29.58 "Hg28 mi
4:00 AM61 °FOvercast.2 mph90%29.58 "Hg28 mi
Weather by CustomWeather, © 2015

See weather overviewHow to use our weather pages